AHY212 LTAI-UBBB

Flight info

Callsign AHY212
Flight time N/A
Altitude 36000
Route HISAR UW77 HALIL/N0455F350 UT54 JUPNE/N0449F370 UT54 SIV UW706 TBN UN61 NOLGA DCT LAGAS M747 LUSAL N319 PENOB T447 INSAN
Aircraft A320/M-SDE3FGHIRWY/LB1

Departure

Time N/A
Airport Antalya International Airport (LTAI)

Arrival

Time 2026-04-30 18:38
Airport Heydar Aliyev International Airport (UBBB)
Time Latitude Longitude Altitude Speed Heading
2026-04-30 17:39 41.35750 42.40484 34125 ft 470 kts 79°
2026-04-30 17:42 41.41040 42.83320 34117 ft 469 kts 80°
2026-04-30 17:43 41.43627 43.04693 34106 ft 468 kts 80°
2026-04-30 17:44 41.46688 43.30402 34110 ft 468 kts 80°
2026-04-30 17:47 41.51157 43.68953 34130 ft 468 kts 80°
2026-04-30 17:48 41.54523 43.98890 34139 ft 467 kts 81°
2026-04-30 17:50 41.54784 44.32908 34132 ft 461 kts 110°
2026-04-30 17:52 41.48750 44.57245 34131 ft 462 kts 110°
2026-04-30 17:54 41.39594 44.93661 34122 ft 461 kts 110°
2026-04-30 17:56 41.31371 45.25876 34115 ft 460 kts 110°
2026-04-30 17:58 41.25139 45.50012 34117 ft 460 kts 111°
2026-04-30 18:00 41.16763 45.81991 34126 ft 458 kts 111°
2026-04-30 18:01 41.11845 46.00531 34142 ft 457 kts 111°
2026-04-30 18:02 41.05484 46.24333 34146 ft 461 kts 111°
2026-04-30 18:04 40.98732 46.49579 34145 ft 459 kts 111°
2026-04-30 18:05 40.95022 46.64186 33243 ft 451 kts 109°
2026-04-30 18:06 40.91270 46.79708 31344 ft 436 kts 109°
2026-04-30 18:07 40.87550 46.94686 30153 ft 426 kts 109°
2026-04-30 18:08 40.84779 47.05811 30171 ft 427 kts 109°
2026-04-30 18:10 40.77319 47.35477 30162 ft 426 kts 109°
2026-04-30 18:11 40.70738 47.61410 30174 ft 426 kts 110°
2026-04-30 18:12 40.67878 47.72559 28687 ft 435 kts 109°
2026-04-30 18:13 40.65954 47.80056 27563 ft 429 kts 109°
2026-04-30 18:13 40.63115 47.91050 26080 ft 418 kts 109°
2026-04-30 18:14 40.61266 47.98182 25158 ft 411 kts 109°
2026-04-30 18:15 40.58529 48.08709 23916 ft 398 kts 109°
2026-04-30 18:15 40.55908 48.18746 23165 ft 373 kts 110°
2026-04-30 18:16 40.54219 48.25182 23189 ft 371 kts 109°
2026-04-30 18:16 40.52537 48.31602 23182 ft 371 kts 109°
2026-04-30 18:17 40.51705 48.34769 23187 ft 372 kts 109°
2026-04-30 18:17 40.50863 48.37974 23186 ft 372 kts 109°
2026-04-30 18:17 40.49175 48.44390 22805 ft 370 kts 110°
2026-04-30 18:18 40.48328 48.47584 22535 ft 369 kts 110°
2026-04-30 18:18 40.47484 48.50754 22266 ft 367 kts 110°
2026-04-30 18:18 40.46640 48.53914 22005 ft 365 kts 110°
2026-04-30 18:18 40.45815 48.57015 21748 ft 364 kts 110°
2026-04-30 18:19 40.44984 48.60148 21481 ft 363 kts 110°
2026-04-30 18:19 40.44156 48.63265 21229 ft 361 kts 110°
2026-04-30 18:19 40.43329 48.66377 20985 ft 360 kts 110°
2026-04-30 18:19 40.42509 48.69459 20734 ft 358 kts 110°
2026-04-30 18:20 40.41684 48.72548 20483 ft 357 kts 110°
2026-04-30 18:20 40.40862 48.75613 20235 ft 356 kts 110°
2026-04-30 18:20 40.40044 48.78661 19991 ft 354 kts 110°
2026-04-30 18:20 40.39225 48.81713 19746 ft 353 kts 110°
2026-04-30 18:21 40.38414 48.84741 19506 ft 351 kts 110°
2026-04-30 18:21 40.37611 48.87740 19189 ft 348 kts 110°
2026-04-30 18:21 40.36804 48.90746 18767 ft 348 kts 110°
2026-04-30 18:21 40.36011 48.93694 18328 ft 348 kts 110°
2026-04-30 18:22 40.35207 48.96669 17880 ft 348 kts 110°
2026-04-30 18:22 40.33590 49.02626 17029 ft 345 kts 110°
2026-04-30 18:22 40.32788 49.05576 16622 ft 344 kts 110°
2026-04-30 18:23 40.31988 49.08520 16213 ft 343 kts 110°
2026-04-30 18:23 40.31190 49.11456 15811 ft 342 kts 110°
2026-04-30 18:23 40.30393 49.14385 15411 ft 341 kts 110°
2026-04-30 18:23 40.29608 49.17271 15007 ft 340 kts 109°
2026-04-30 18:24 40.28033 49.23077 14190 ft 338 kts 109°
2026-04-30 18:24 40.27243 49.25974 13781 ft 337 kts 109°
2026-04-30 18:24 40.26456 49.28846 13356 ft 335 kts 109°
2026-04-30 18:25 40.25671 49.31711 12952 ft 333 kts 109°
2026-04-30 18:25 40.24117 49.37397 12127 ft 330 kts 109°
2026-04-30 18:25 40.23348 49.40207 11716 ft 328 kts 109°
2026-04-30 18:26 40.21807 49.45810 10889 ft 326 kts 110°
2026-04-30 18:26 40.21045 49.48572 10455 ft 326 kts 110°
2026-04-30 18:26 40.20282 49.51326 10271 ft 317 kts 110°
2026-04-30 18:27 40.18803 49.56667 10085 ft 314 kts 110°
2026-04-30 18:27 40.18053 49.59370 9632 ft 314 kts 110°
2026-04-30 18:28 40.16584 49.64685 8874 ft 308 kts 110°
2026-04-30 18:28 40.15854 49.67321 8250 ft 313 kts 110°
2026-04-30 18:28 40.14342 49.72767 7117 ft 318 kts 110°
2026-04-30 18:29 40.13388 49.75297 6987 ft 303 kts 129°
2026-04-30 18:29 40.09328 49.80554 7002 ft 248 kts 137°
2026-04-30 18:30 40.07784 49.84341 7010 ft 240 kts 90°
2026-04-30 18:30 40.08951 49.88182 7012 ft 230 kts 38°
2026-04-30 18:31 40.10239 49.89379 6826 ft 228 kts 29°
2026-04-30 18:31 40.12910 49.91617 6502 ft 233 kts 30°
2026-04-30 18:32 40.15705 49.93974 5478 ft 245 kts 31°
2026-04-30 18:32 40.17155 49.95198 4976 ft 250 kts 31°
2026-04-30 18:32 40.20057 49.97665 3962 ft 257 kts 32°
2026-04-30 18:33 40.21547 49.98934 3466 ft 261 kts 32°
2026-04-30 18:33 40.24538 50.01481 2875 ft 243 kts 32°
2026-04-30 18:33 40.25934 50.02673 2371 ft 237 kts 33°
2026-04-30 18:34 40.27286 50.03827 2027 ft 225 kts 33°
2026-04-30 18:34 40.29808 50.05962 2009 ft 212 kts 30°
2026-04-30 18:34 40.31198 50.06532 2006 ft 210 kts
2026-04-30 18:35 40.32638 50.06529 2010 ft 210 kts 358°
2026-04-30 18:35 40.34113 50.06500 2012 ft 209 kts 358°
2026-04-30 18:35 40.35514 50.06478 1962 ft 193 kts 358°
2026-04-30 18:36 40.37894 50.06442 1580 ft 153 kts 358°
2026-04-30 18:36 40.38919 50.06427 1389 ft 142 kts 358°
2026-04-30 18:36 40.40843 50.06397 1016 ft 136 kts 359°
2026-04-30 18:37 40.41787 50.06383 825 ft 135 kts 360°
2026-04-30 18:37 40.42713 50.06369 644 ft 134 kts
2026-04-30 18:37 40.43636 50.06355 469 ft 132 kts
2026-04-30 18:37 40.44556 50.06340 305 ft 131 kts
2026-04-30 18:38 40.45465 50.06316 118 ft 131 kts 360°
2026-04-30 18:38 40.46365 50.06332 17 ft 129 kts
2026-04-30 18:38 40.47131 50.06306 8 ft 65 kts 357°
2026-04-30 18:38 40.47390 50.06276 7 ft 30 kts 341°
2026-04-30 18:39 40.47539 50.06184 8 ft 13 kts 326°
2026-04-30 18:39 40.47574 50.06101 8 ft 10 kts 244°
2026-04-30 18:39 40.47517 50.06081 8 ft 8 kts 180°
2026-04-30 18:39 40.47465 50.06081 8 ft 7 kts 179°
2026-04-30 18:40 40.47419 50.06081 8 ft 6 kts 179°
2026-04-30 18:40 40.47378 50.06082 8 ft 5 kts 179°
2026-04-30 18:40 40.47344 50.06082 8 ft 5 kts 180°
2026-04-30 18:40 40.47314 50.06082 8 ft 4 kts 180°
2026-04-30 18:41 40.47289 50.06083 8 ft 3 kts 178°
2026-04-30 18:41 40.47268 50.06084 8 ft 3 kts 179°
2026-04-30 18:41 40.47236 50.06084 10 ft 5 kts 179°
2026-04-30 18:41 40.47206 50.06085 9 ft 4 kts 179°
2026-04-30 18:42 40.47180 50.06085 8 ft 3 kts 181°
2026-04-30 18:42 40.47141 50.06085 8 ft 2 kts 179°
2026-04-30 18:42 40.47124 50.06085 8 ft 6 kts 179°
2026-04-30 18:45 40.46931 50.05360 9 ft 4 kts 268°
2026-04-30 18:45 40.46930 50.05311 9 ft 5 kts 268°
2026-04-30 18:45 40.46929 50.05266 9 ft 5 kts 268°
2026-04-30 18:46 40.46928 50.05225 9 ft 4 kts 268°
2026-04-30 18:46 40.46927 50.05188 9 ft 4 kts 268°
2026-04-30 18:46 40.46926 50.05155 9 ft 3 kts 266°
2026-04-30 18:46 40.46925 50.05125 9 ft 3 kts 267°
2026-04-30 18:47 40.46913 50.05070 10 ft 11 kts 240°
2026-04-30 18:47 40.46838 50.05043 9 ft 10 kts 181°
2026-04-30 18:47 40.46748 50.05071 9 ft 12 kts 148°
2026-04-30 18:47 40.46713 50.05105 9 ft 0 kts 142°